Regional Weather Roundup
Issued by NWS

Home | Current Version | Previous Version | Graphics & Text | Print | Product List | Glossary On
Versions: 1 2 3 4 5 6 7 8 9 10 11 12 13 14 15 16 17 18 19 20 21 22 23 24 25 26 27 28 29 30 31 32 33 34 35 36 37 38 39 40 41 42 43 44 45 46 47 48
000
ASUS45 KBOU 232007
RWRCO

WEATHER ROUNDUP FOR COLORADO
NATIONAL WEATHER SERVICE DENVER/BOULDER CO
200 PM MDT WED JUL 23 2014

NOTE: "FAIR" INDICATES FEW OR NO CLOUDS BELOW 12000 FEET WITH NO
SIGNIFICANT WEATHER AND/OR OBSTRUCTIONS TO VISIBILITY.

COZ001>005-013-030-031-232100-
...NORTHWEST COLORADO...

CITY           SKY/WX    TMP DP  RH WIND       PRES   REMARKS
CRAIG          MOSUNNY   90  38  16 W12G17    30.30F
HAYDEN         MOSUNNY   91  37  15 NW7       30.33F
MEEKER         MOSUNNY   92  34  13 SW12      30.32F
MOUNT WERNER   NOT AVBL
STEAMBOAT SPGS MOSUNNY   85  41  21 SW6       30.38F
WALDEN         PTSUNNY   79  32  18 W6        30.48F
$$

COZ006>008-011-232100-
...WEST CENTRAL VALLEYS...

CITY           SKY/WX    TMP DP  RH WIND       PRES   REMARKS
GRAND JUNCTION MOSUNNY   96  41  15 W10       30.18F
MONTROSE       MOSUNNY   94  41  16 N10       30.28F
EAGLE          MOSUNNY   91  37  15 W14G20    30.33F
RIFLE          MOSUNNY   96  35  11 W17       30.24F
DELTA          MOSUNNY  101  37  11 S8        30.22F
NUCLA          MOSUNNY   95  34  11 NW6       30.32F
$$

COZ017>023-064>068-232100-
...SOUTHWEST COLORADO...

CITY           SKY/WX    TMP DP  RH WIND       PRES   REMARKS
DURANGO        SUNNY     91  34  13 MISG      30.38F
CORTEZ         SUNNY     95  40  14 S10G23    30.31F
PAGOSA SPRINGS SUNNY     85  33  15 SW8       30.48F
TELLURIDE      PTSUNNY   75  34  22 CALM      30.59S
WOLF CREEK PAS NOT AVBL
$$

COZ009-010-012-014-032>034-037-058>063-232100-
...CENTRAL COLORADO...

CITY           SKY/WX    TMP DP  RH WIND       PRES   REMARKS
ASPEN          MOSUNNY   84  38  19 SW5       30.44F
BUENA VISTA    PTSUNNY   81  29  15 SW12      30.50F
COPPER MTN     CLOUDY    61  34  36 SE9G17    30.88R
BERTHOUD PASS  TSTM      48  34  57 E24       30.93R
COTTONWOOD PAS CLOUDY    70  32  24 S9        30.68F
GUNNISON       MOSUNNY   84  36  17 CALM      30.48F
KREMMLING      MOSUNNY   90  12   5 CALM      30.41F
LEADVILLE      PTSUNNY   64  37  36 N5        30.67R
MONARCH PASS   CLOUDY    61  34  36 NE17      30.95F
SALIDA         PTSUNNY  N/A N/A N/A SE13G18   30.52F
SUNLIGHT       PTSUNNY   79  43  27 CALM      30.76F
WILKERSON PASS MOSUNNY   72  28  20 S5        30.83F
$$

COZ069>075-232100-
...SAN LUIS VALLEY/SANGRE DE CRISTO MOUNTAINS...

CITY           SKY/WX    TMP DP  RH WIND       PRES   REMARKS
ALAMOSA        SUNNY     84  38  19 S8        30.47F
LA VETA PASS   SUNNY     77  39  25 E13G18    30.73F
SAGUACHE       SUNNY     84  32  15 SW10G17   30.51F
$$

COZ035-036-038>040-232100-
...NORTHERN COLORADO FRONT RANGE...

CITY           SKY/WX    TMP DP  RH WIND       PRES   REMARKS
DENVER INTL AP MOSUNNY   88  59  37 NW8G16    30.29F
DMNS CITY PARK   N/A     82  60  46 N3G12     30.30F
AURORA         MOSUNNY   85  64  48 NW8       30.32F
FRONT RANGE AP NOT AVBL
ERIE MUNI ARPT MOSUNNY   84  59  42 W3        30.30F
BOULDER MUN AP MOSUNNY   79  59  50 CALM      30.32F
CENTENNIAL     MOSUNNY   81  61  50 N9        30.34F
BROOMFIELD     NOT AVBL
FORT COLLINS   SUNNY     81  63  54 W7        30.29F
LONGMONT       SUNNY     88  60  38 N3        30.32F
$$

COZ041-046-047-076>085-087-088-232100-
...PIKES PEAK/PALMER DIVIDE AND SOUTHERN FOOTHILLS...

CITY           SKY/WX    TMP DP  RH WIND       PRES   REMARKS
COLO. SPRINGS  MOSUNNY   89  48  24 S15G26    30.40F
A. F. ACADEMY  MOSUNNY   86  47  26 SE20      30.41F
ELLICOTT       SUNNY     88  47  24 S17G25    30.39F
FALCON         SUNNY     85  50  29 SE13G21   30.46F
FORT CARSON    SUNNY     90  50  25 S14       30.37F
LIMON          MOSUNNY   90  59  35 SE20G36   30.33F
MONUMENT HILL  SUNNY     84  41  21 S20G28    30.44F
TRINIDAD       MOSUNNY   92  46  20 SE13      30.34F
$$

COZ042>045-048>051-090-091-232100-
...NORTHEAST COLORADO...

CITY           SKY/WX    TMP DP  RH WIND       PRES   REMARKS
GREELEY ARPT   SUNNY     86  63  45 SE9       30.27F
AKRON          SUNNY     80  64  58 SE26G36   30.31F
BURLINGTON     SUNNY     83  65  54 SE21G28   30.30F
WRAY             N/A     94  57  29 S18G29    30.25F
STERLING       SUNNY     88  70  55 S17G23    30.25F
HOLYOKE        SUNNY     88  61  40 S15G23    30.25F
FORT MORGAN    MOSUNNY   83  64  52 SE14G23   30.29F
$$

COZ086-089-092>099-232100-
...SOUTHEAST COLORADO...

CITY           SKY/WX    TMP DP  RH WIND       PRES   REMARKS
PUEBLO         SUNNY     95  48  20 E14G21    30.27F
LA JUNTA       SUNNY     96  55  25 SE9       30.24F
LAMAR          SUNNY     97  60  29 E24G32    30.21F
SPRINGFIELD      N/A     93  48  21 SE12G18   30.27F
$$


USA.gov is the U.S. government's official web portal to all federal, state and local government web resources and services.